FDX1776 CYQB-CYUL

Flight info

Callsign FDX1776
Flight time 0h 38m
Altitude 15000
Route PENTU Q824 OBTAX
Aircraft AT76/M-SDE2E3FGHIRWXY/LB1

Departure

Time 2026-05-04 21:16
Airport Quebec Jean Lesage International Airport (CYQB)

Arrival

Time 2026-05-04 21:55
Airport Montreal / Pierre Elliott Trudeau International Airport (CYUL)
Time Latitude Longitude Altitude Speed Heading
2026-05-04 20:54 46.79009 -71.38465 250 ft 0 kts 59°
2026-05-04 20:58 46.79010 -71.38465 250 ft 0 kts 59°
2026-05-04 20:59 46.79010 -71.38464 250 ft 0 kts 59°
2026-05-04 20:59 46.79009 -71.38465 250 ft 0 kts 59°
2026-05-04 21:04 46.79010 -71.38465 250 ft 0 kts 59°
2026-05-04 21:04 46.79010 -71.38464 250 ft 0 kts 59°
2026-05-04 21:06 46.79020 -71.38457 250 ft 0 kts
2026-05-04 21:06 46.79009 -71.38465 250 ft 0 kts 59°
2026-05-04 21:10 46.79003 -71.38480 250 ft 2 kts 59°
2026-05-04 21:10 46.78994 -71.38503 250 ft 3 kts 59°
2026-05-04 21:11 46.78983 -71.38528 250 ft 3 kts 59°
2026-05-04 21:11 46.78973 -71.38554 250 ft 3 kts 59°
2026-05-04 21:11 46.78965 -71.38572 250 ft 0 kts 59°
2026-05-04 21:11 46.78966 -71.38571 250 ft 1 kts 58°
2026-05-04 21:12 46.78971 -71.38566 250 ft 1 kts 19°
2026-05-04 21:12 46.78983 -71.38575 250 ft 4 kts 297°
2026-05-04 21:12 46.79000 -71.38624 250 ft 8 kts 335°
2026-05-04 21:12 46.79079 -71.38615 250 ft 15 kts 12°
2026-05-04 21:13 46.79203 -71.38578 250 ft 21 kts 11°
2026-05-04 21:13 46.79356 -71.38536 250 ft 24 kts
2026-05-04 21:13 46.79493 -71.38415 250 ft 25 kts 43°
2026-05-04 21:13 46.79623 -71.38228 250 ft 27 kts 44°
2026-05-04 21:14 46.79759 -71.38044 250 ft 21 kts 22°
2026-05-04 21:14 46.79861 -71.38044 250 ft 8 kts 353°
2026-05-04 21:14 46.79879 -71.38047 250 ft 0 kts 355°
2026-05-04 21:15 46.79882 -71.38047 250 ft 2 kts 355°
2026-05-04 21:15 46.79932 -71.38056 250 ft 13 kts 338°
2026-05-04 21:15 46.79938 -71.38182 251 ft 27 kts 225°
2026-05-04 21:16 46.79607 -71.38662 251 ft 101 kts 227°
2026-05-04 21:16 46.79078 -71.39467 658 ft 110 kts 229°
2026-05-04 21:16 46.78480 -71.40384 948 ft 143 kts 228°
2026-05-04 21:16 46.77709 -71.41475 1351 ft 159 kts 226°
2026-05-04 21:17 46.76917 -71.42568 1854 ft 157 kts 226°
2026-05-04 21:17 46.76118 -71.43697 2203 ft 163 kts 227°
2026-05-04 21:17 46.75298 -71.44864 2588 ft 167 kts 226°
2026-05-04 21:17 46.74454 -71.46052 3004 ft 169 kts 226°
2026-05-04 21:18 46.73606 -71.47252 3427 ft 171 kts 226°
2026-05-04 21:18 46.72757 -71.48467 3879 ft 171 kts 227°
2026-05-04 21:18 46.71913 -71.49668 4373 ft 168 kts 227°
2026-05-04 21:18 46.71075 -71.50853 4857 ft 167 kts 229°
2026-05-04 21:19 46.70239 -71.52032 5340 ft 167 kts 229°
2026-05-04 21:19 46.69396 -71.53216 5782 ft 168 kts 229°
2026-05-04 21:19 46.68559 -71.54405 6217 ft 169 kts 230°
2026-05-04 21:19 46.67717 -71.55607 6662 ft 170 kts 230°
2026-05-04 21:20 46.66870 -71.56821 7103 ft 171 kts 230°
2026-05-04 21:20 46.66025 -71.58034 7533 ft 172 kts 230°
2026-05-04 21:20 46.65172 -71.59255 7969 ft 172 kts 230°
2026-05-04 21:20 46.64310 -71.60485 8394 ft 173 kts 230°
2026-05-04 21:21 46.63441 -71.61724 8813 ft 174 kts 230°
2026-05-04 21:21 46.62575 -71.62956 9218 ft 176 kts 230°
2026-05-04 21:21 46.61698 -71.64199 9630 ft 176 kts 230°
2026-05-04 21:21 46.60818 -71.65445 10031 ft 177 kts 230°
2026-05-04 21:22 46.59934 -71.66696 10424 ft 178 kts 230°
2026-05-04 21:22 46.59046 -71.67979 10802 ft 179 kts 231°
2026-05-04 21:22 46.58163 -71.69269 11180 ft 180 kts 231°
2026-05-04 21:22 46.57276 -71.70564 11557 ft 180 kts 231°
2026-05-04 21:23 46.56413 -71.71854 11928 ft 180 kts 233°
2026-05-04 21:23 46.55598 -71.73241 12286 ft 181 kts 236°
2026-05-04 21:23 46.54799 -71.74661 12639 ft 182 kts 237°
2026-05-04 21:23 46.54005 -71.76103 12991 ft 182 kts 237°
2026-05-04 21:24 46.53213 -71.77548 13343 ft 183 kts 237°
2026-05-04 21:24 46.52423 -71.78992 13685 ft 183 kts 237°
2026-05-04 21:24 46.51634 -71.80436 14009 ft 185 kts 237°
2026-05-04 21:24 46.50827 -71.81911 14338 ft 186 kts 237°
2026-05-04 21:25 46.50020 -71.83386 14676 ft 186 kts 237°
2026-05-04 21:25 46.49206 -71.84873 14882 ft 193 kts 237°
2026-05-04 21:25 46.48352 -71.86447 14980 ft 203 kts 237°
2026-05-04 21:25 46.47461 -71.88106 15004 ft 215 kts 237°
2026-05-04 21:26 46.46523 -71.89869 15009 ft 225 kts 237°
2026-05-04 21:26 46.45545 -71.91698 15008 ft 233 kts 236°
2026-05-04 21:26 46.44506 -71.93564 15007 ft 239 kts 236°
2026-05-04 21:26 46.43450 -71.95438 15006 ft 243 kts 235°
2026-05-04 21:27 46.42389 -71.97347 15006 ft 245 kts 236°
2026-05-04 21:27 46.41332 -71.99279 15005 ft 247 kts 236°
2026-05-04 21:27 46.40259 -72.01238 15005 ft 248 kts 236°
2026-05-04 21:27 46.39181 -72.03201 15005 ft 249 kts 236°
2026-05-04 21:28 46.38102 -72.05165 15004 ft 250 kts 236°
2026-05-04 21:28 46.37012 -72.07147 15004 ft 251 kts 236°
2026-05-04 21:28 46.35930 -72.09114 15004 ft 252 kts 236°
2026-05-04 21:28 46.34837 -72.11096 15004 ft 252 kts 236°
2026-05-04 21:29 46.33748 -72.13073 15004 ft 252 kts 236°
2026-05-04 21:29 46.32642 -72.15077 15004 ft 253 kts 236°
2026-05-04 21:29 46.31552 -72.17053 15004 ft 253 kts 236°
2026-05-04 21:29 46.30462 -72.19026 15004 ft 253 kts 236°
2026-05-04 21:30 46.29360 -72.21014 15004 ft 253 kts 236°
2026-05-04 21:30 46.28251 -72.23024 15004 ft 253 kts 236°
2026-05-04 21:30 46.27413 -72.24531 15004 ft 253 kts 236°
2026-05-04 21:30 46.27044 -72.25193 15004 ft 253 kts 236°
2026-05-04 21:33 46.26750 -72.25723 14975 ft 255 kts 235°
2026-05-04 21:33 46.26004 -72.27078 14865 ft 259 kts 235°
2026-05-04 21:33 46.24895 -72.29110 14751 ft 262 kts 235°
2026-05-04 21:33 46.23373 -72.31859 14696 ft 262 kts 234°
2026-05-04 21:34 46.22604 -72.33239 14689 ft 261 kts 234°
2026-05-04 21:34 46.21103 -72.35936 14685 ft 260 kts 234°
2026-05-04 21:34 46.20347 -72.37293 14684 ft 260 kts 234°
2026-05-04 21:34 46.19209 -72.39337 14684 ft 259 kts 234°
2026-05-04 21:35 46.18086 -72.41353 14684 ft 258 kts 235°
2026-05-04 21:35 46.16961 -72.43373 14684 ft 258 kts 234°
2026-05-04 21:35 46.15838 -72.45391 14683 ft 258 kts 235°
2026-05-04 21:35 46.14717 -72.47405 14684 ft 258 kts 234°
2026-05-04 21:36 46.13597 -72.49414 14684 ft 257 kts 235°
2026-05-04 21:36 46.12469 -72.51440 14684 ft 257 kts 235°
2026-05-04 21:36 46.11359 -72.53437 14684 ft 257 kts 235°
2026-05-04 21:36 46.10231 -72.55466 14684 ft 257 kts 235°
2026-05-04 21:37 46.09119 -72.57466 14684 ft 257 kts 235°
2026-05-04 21:37 46.08001 -72.59477 14685 ft 257 kts 235°
2026-05-04 21:37 46.06873 -72.61488 14598 ft 260 kts 234°
2026-05-04 21:37 46.05715 -72.63522 14473 ft 261 kts 234°
2026-05-04 21:38 46.04577 -72.65516 14348 ft 261 kts 234°
2026-05-04 21:38 46.03428 -72.67538 14224 ft 261 kts 234°
2026-05-04 21:38 46.02279 -72.69588 14108 ft 261 kts 234°
2026-05-04 21:38 46.01148 -72.71596 14068 ft 258 kts 234°
2026-05-04 21:39 46.00026 -72.73589 14065 ft 255 kts 234°
2026-05-04 21:39 45.98908 -72.75575 14031 ft 254 kts 234°
2026-05-04 21:39 45.97801 -72.77538 14021 ft 252 kts 234°
2026-05-04 21:39 45.96704 -72.79496 14020 ft 251 kts 234°
2026-05-04 21:40 45.95611 -72.81438 14018 ft 250 kts 234°
2026-05-04 21:40 45.94513 -72.83390 13847 ft 255 kts 234°
2026-05-04 21:40 45.93401 -72.85379 13589 ft 260 kts 234°
2026-05-04 21:40 45.92333 -72.87304 13329 ft 261 kts 234°
2026-05-04 21:41 45.92310 -72.87345 13323 ft 261 kts 234°
2026-05-04 21:41 45.91167 -72.89376 13050 ft 263 kts 233°
2026-05-04 21:41 45.89993 -72.91411 12776 ft 265 kts 232°
2026-05-04 21:42 45.88833 -72.93445 12501 ft 265 kts 232°
2026-05-04 21:42 45.87656 -72.95510 12225 ft 266 kts 232°
2026-05-04 21:42 45.86484 -72.97563 11951 ft 266 kts 232°
2026-05-04 21:42 45.85311 -72.99628 11675 ft 264 kts 232°
2026-05-04 21:43 45.84157 -73.01670 11398 ft 262 kts 232°
2026-05-04 21:43 45.83024 -73.03687 11123 ft 260 kts 232°
2026-05-04 21:43 45.81898 -73.05700 10849 ft 259 kts 232°
2026-05-04 21:43 45.80779 -73.07714 10573 ft 259 kts 232°
2026-05-04 21:44 45.79650 -73.09734 10295 ft 258 kts 231°
2026-05-04 21:44 45.78512 -73.11739 10020 ft 258 kts 231°
2026-05-04 21:44 45.77391 -73.13713 9748 ft 257 kts 231°
2026-05-04 21:44 45.76265 -73.15701 9471 ft 258 kts 231°
2026-05-04 21:45 45.75122 -73.17715 9193 ft 258 kts 231°
2026-05-04 21:45 45.73983 -73.19688 8920 ft 258 kts 230°
2026-05-04 21:45 45.72838 -73.21644 8642 ft 257 kts 230°
2026-05-04 21:45 45.71697 -73.23584 8373 ft 253 kts 230°
2026-05-04 21:46 45.70526 -73.25459 8083 ft 249 kts 227°
2026-05-04 21:46 45.69444 -73.27348 7725 ft 247 kts 237°
2026-05-04 21:46 45.68670 -73.29547 7391 ft 245 kts 245°
2026-05-04 21:46 45.68043 -73.31786 7046 ft 244 kts 249°
2026-05-04 21:47 45.67455 -73.34045 6697 ft 243 kts 249°
2026-05-04 21:47 45.66875 -73.36316 6344 ft 242 kts 249°
2026-05-04 21:47 45.66309 -73.38555 6040 ft 239 kts 249°
2026-05-04 21:47 45.65750 -73.40772 5741 ft 237 kts 249°
2026-05-04 21:48 45.65193 -73.42985 5436 ft 231 kts 249°
2026-05-04 21:48 45.64649 -73.45144 5133 ft 229 kts 250°
2026-05-04 21:48 45.64122 -73.47237 4835 ft 225 kts 249°
2026-05-04 21:48 45.63590 -73.49352 4545 ft 222 kts 249°
2026-05-04 21:49 45.63079 -73.51385 4267 ft 212 kts 249°
2026-05-04 21:49 45.62591 -73.53331 3985 ft 202 kts 249°
2026-05-04 21:49 45.62090 -73.55137 3797 ft 189 kts 244°
2026-05-04 21:49 45.61364 -73.56606 3632 ft 177 kts 229°
2026-05-04 21:50 45.60480 -73.57780 3396 ft 166 kts 221°
2026-05-04 21:50 45.59638 -73.58788 3125 ft 154 kts 221°
2026-05-04 21:50 45.58857 -73.59768 2875 ft 143 kts 223°
2026-05-04 21:50 45.58157 -73.60685 2669 ft 130 kts 223°
2026-05-04 21:51 45.57519 -73.61526 2599 ft 124 kts 223°
2026-05-04 21:51 45.56863 -73.62393 2476 ft 132 kts 223°
2026-05-04 21:51 45.56164 -73.63317 2327 ft 142 kts 223°
2026-05-04 21:51 45.55426 -73.64291 2120 ft 144 kts 223°
2026-05-04 21:52 45.54690 -73.65258 1880 ft 144 kts 223°
2026-05-04 21:52 45.53963 -73.66210 1670 ft 141 kts 223°
2026-05-04 21:52 45.53255 -73.67139 1465 ft 135 kts 223°
2026-05-04 21:52 45.52580 -73.68025 1293 ft 127 kts 223°
2026-05-04 21:53 45.51949 -73.68852 1177 ft 126 kts 223°
2026-05-04 21:53 45.51305 -73.69697 987 ft 125 kts 223°
2026-05-04 21:53 45.50667 -73.70532 817 ft 123 kts 223°
2026-05-04 21:53 45.50046 -73.71347 654 ft 121 kts 223°
2026-05-04 21:54 45.49444 -73.72134 483 ft 112 kts 223°
2026-05-04 21:54 45.48893 -73.72852 326 ft 105 kts 223°
2026-05-04 21:54 45.48359 -73.73551 192 ft 102 kts 223°
2026-05-04 21:54 45.47864 -73.74205 125 ft 86 kts 222°
2026-05-04 21:55 45.47507 -73.74668 125 ft 55 kts 223°
2026-05-04 21:55 45.47258 -73.74989 125 ft 34 kts 211°
2026-05-04 21:55 45.47096 -73.75046 125 ft 17 kts 178°
2026-05-04 21:55 45.46993 -73.75041 125 ft 20 kts 176°
2026-05-04 21:56 45.46819 -73.75034 125 ft 29 kts 179°
2026-05-04 21:56 45.46597 -73.75020 125 ft 35 kts 180°
2026-05-04 21:56 45.46352 -73.75007 125 ft 34 kts 176°
2026-05-04 21:56 45.46188 -73.74996 125 ft 13 kts 175°
2026-05-04 21:57 45.46149 -73.74929 124 ft 9 kts 89°
2026-05-04 21:57 45.46144 -73.74827 125 ft 12 kts 120°
2026-05-04 21:57 45.46084 -73.74823 124 ft 7 kts 188°
2026-05-04 21:57 45.46071 -73.74823 124 ft 0 kts 175°
2026-05-04 21:58 45.46070 -73.74823 124 ft 0 kts 176°